When you browse on this site, cookies collect data to enhance your experience and personalize the content and advertising you see.
Visit our Privacy Policy to learn more. By continuing to use the site, you agree to this use of cookies and data.
  • Em Portugal
  • Lista de países
  • Para 7 dias
  • Temperatura da água
  • Mapas de satélite
  • Mapa do tempo
  • Widgets de tempo
  • user-avatar
    Iniciar Sessão

    Previsão horária em Jarzebnik

    Hoje, 19 Dezembro, Quarta-feira

    Tempo Temperatura Precipitação Vento Pressão Humidade
    00:00 -1°C° 0 mm 3 m/s 756 mmHg 96%
    01:00 -1°C° 0 mm 3 m/s 755 mmHg 96%
    02:00 -1°C° 0 mm 3 m/s 755 mmHg 96%
    03:00 -1°C° 0 mm 3 m/s 755 mmHg 96%
    04:00 -1°C° 0 mm 3 m/s 755 mmHg 96%
    05:00 -1°C° 0 mm 3 m/s 754 mmHg 94%
    06:00 -2°C° 0 mm 4 m/s 754 mmHg 93%
    07:00 -2°C° 0 mm 4 m/s 754 mmHg 92%
    08:00 -2°C° 0 mm 4 m/s 754 mmHg 88%
    09:00 -2°C° 0 mm 5 m/s 754 mmHg 84%
    10:00 -2°C° 0 mm 5 m/s 753 mmHg 80%
    11:00 -2°C° 0 mm 5 m/s 753 mmHg 78%
    12:00 -2°C° 0 mm 5 m/s 752 mmHg 77%
    13:00 -1°C° 0 mm 5 m/s 752 mmHg 75%
    14:00 -2°C° 0 mm 5 m/s 752 mmHg 77%
    15:00 -2°C° 0 mm 5 m/s 751 mmHg 80%
    16:00 -4°C° 0 mm 5 m/s 751 mmHg 82%
    17:00 -4°C° 0 mm 5 m/s 751 mmHg 82%
    18:00 -4°C° 0 mm 5 m/s 750 mmHg 81%
    19:00 -4°C° 0 mm 5 m/s 750 mmHg 81%
    20:00 -4°C° 0 mm 5 m/s 750 mmHg 81%
    21:00 -3°C° 0 mm 4 m/s 750 mmHg 81%
    22:00 -3°C° 0 mm 4 m/s 750 mmHg 81%
    23:00 -3°C° 0 mm 4 m/s 750 mmHg 81%

    Amanhã, 20 Dezembro, Quinta-feira

    Tempo Temperatura Precipitação Vento Pressão Humidade
    00:00 -3°C° 0 mm 4 m/s 750 mmHg 81%
    01:00 -3°C° 0 mm 4 m/s 750 mmHg 82%
    02:00 -3°C° 0.2 mm 4 m/s 750 mmHg 84%
    03:00 -3°C° 0.2 mm 4 m/s 749 mmHg 86%
    04:00 -3°C° 0.2 mm 4 m/s 749 mmHg 89%
    05:00 -3°C° 0.5 mm 4 m/s 749 mmHg 90%
    06:00 -2°C° 0.5 mm 3 m/s 749 mmHg 91%
    07:00 -2°C° 0.5 mm 3 m/s 749 mmHg 92%
    08:00 -2°C° 0.4 mm 3 m/s 749 mmHg 92%
    09:00 -2°C° 0.4 mm 3 m/s 749 mmHg 93%
    10:00 -1°C° 0.4 mm 3 m/s 749 mmHg 93%
    11:00 -1°C° 0.3 mm 3 m/s 749 mmHg 93%
    12:00 -1°C° 0.3 mm 3 m/s 749 mmHg 93%
    13:00 -1°C° 0.3 mm 3 m/s 748 mmHg 92%
    14:00 -1°C° 0.2 mm 3 m/s 748 mmHg 93%
    15:00 -1°C° 0.2 mm 3 m/s 748 mmHg 93%
    16:00 -1°C° 0.2 mm 3 m/s 748 mmHg 93%
    17:00 -1°C° 0.1 mm 3 m/s 748 mmHg 94%
    18:00 -1°C° 0.1 mm 3 m/s 748 mmHg 94%
    19:00 -1°C° 0.1 mm 3 m/s 748 mmHg 94%
    20:00 -1°C° 0.2 mm 3 m/s 748 mmHg 95%
    21:00 -1°C° 0.2 mm 3 m/s 748 mmHg 95%
    22:00 -1°C° 0.2 mm 3 m/s 747 mmHg 96%
    23:00 -1°C° 0.2 mm 3 m/s 747 mmHg 96%

    Depois de amanhã, 21 Dezembro, Sexta-feira

    Tempo Temperatura Precipitação Vento Pressão Humidade
    00:00 0°C° 0.2 mm 3 m/s 747 mmHg 96%
    01:00 0°C° 0.2 mm 3 m/s 747 mmHg 97%
    02:00 0°C° 0 mm 3 m/s 747 mmHg 97%
    03:00 0°C° 0 mm 3 m/s 746 mmHg 97%
    04:00 0°C° 0 mm 3 m/s 746 mmHg 97%
    05:00 0°C° 0 mm 3 m/s 746 mmHg 97%
    06:00 0°C° 0 mm 3 m/s 746 mmHg 97%
    07:00 0°C° 0 mm 3 m/s 745 mmHg 97%
    08:00 0°C° 0 mm 3 m/s 745 mmHg 97%
    09:00 0°C° 0 mm 3 m/s 745 mmHg 97%
    10:00 0°C° 0 mm 3 m/s 745 mmHg 97%
    11:00 0°C° 0 mm 3 m/s 744 mmHg 97%
    12:00 +1°C° 0 mm 3 m/s 744 mmHg 97%
    13:00 0°C° 0 mm 4 m/s 743 mmHg 97%
    14:00 0°C° 0.1 mm 4 m/s 742 mmHg 96%
    15:00 -1°C° 0.1 mm 4 m/s 742 mmHg 96%
    16:00 -1°C° 0.1 mm 4 m/s 741 mmHg 96%
    17:00 -1°C° 0.3 mm 4 m/s 740 mmHg 95%
    18:00 -1°C° 0.3 mm 4 m/s 739 mmHg 95%
    19:00 -1°C° 0.3 mm 5 m/s 738 mmHg 95%
    20:00 -1°C° 0.6 mm 5 m/s 737 mmHg 95%
    21:00 -1°C° 0.6 mm 5 m/s 736 mmHg 94%
    22:00 -1°C° 0.6 mm 5 m/s 735 mmHg 94%
    23:00 0°C° 1 mm 5 m/s 735 mmHg 94%

    22 Dezembro, Sábado

    Tempo Temperatura Precipitação Vento Pressão Humidade
    00:00 0°C° 1 mm 5 m/s 735 mmHg 95%
    01:00 +1°C° 1 mm 4 m/s 734 mmHg 95%
    02:00 +1°C° 0.6 mm 5 m/s 734 mmHg 93%
    03:00 +2°C° 0.6 mm 5 m/s 734 mmHg 91%
    04:00 +2°C° 0.6 mm 6 m/s 734 mmHg 90%
    05:00 +3°C° 0.5 mm 6 m/s 734 mmHg 89%
    06:00 +3°C° 0.5 mm 6 m/s 734 mmHg 89%
    07:00 +3°C° 0.5 mm 6 m/s 734 mmHg 88%
    08:00 +3°C° 0.2 mm 7 m/s 734 mmHg 89%
    09:00 +3°C° 0.2 mm 7 m/s 734 mmHg 89%
    10:00 +3°C° 0.2 mm 7 m/s 734 mmHg 89%
    11:00 +3°C° 0.1 mm 6 m/s 734 mmHg 90%
    12:00 +3°C° 0.1 mm 6 m/s 734 mmHg 90%
    13:00 +3°C° 0.1 mm 6 m/s 734 mmHg 91%
    14:00 +3°C° 0.1 mm 5 m/s 735 mmHg 91%
    15:00 +2°C° 0.1 mm 5 m/s 735 mmHg 91%
    16:00 +2°C° 0.1 mm 5 m/s 736 mmHg 92%
    17:00 +1°C° 0 mm 4 m/s 737 mmHg 92%
    18:00 +1°C° 0 mm 4 m/s 737 mmHg 92%
    19:00 +2°C° 0 mm 3 m/s 738 mmHg 93%
    20:00 +1°C° 0 mm 3 m/s 738 mmHg 93%
    21:00 +2°C° 0 mm 2 m/s 739 mmHg 94%
    22:00 +1°C° 0 mm 2 m/s 739 mmHg 95%
    23:00 +1°C° 0 mm 2 m/s 740 mmHg 95%

    23 Dezembro, Domingo

    Tempo Temperatura Precipitação Vento Pressão Humidade
    00:00 +1°C° 0 mm 2 m/s 740 mmHg 95%
    01:00 +2°C° 0 mm 1 m/s 741 mmHg 95%
    02:00 +2°C° 0.1 mm 1 m/s 741 mmHg 95%
    03:00 +2°C° 0.1 mm 1 m/s 741 mmHg 94%
    04:00 +2°C° 0.1 mm 1 m/s 742 mmHg 94%
    05:00 +1°C° 0.4 mm 2 m/s 742 mmHg 94%
    06:00 +2°C° 0.4 mm 2 m/s 742 mmHg 94%
    07:00 +1°C° 0.4 mm 3 m/s 742 mmHg 93%
    08:00 +2°C° 0.3 mm 3 m/s 742 mmHg 93%
    09:00 +1°C° 0.3 mm 4 m/s 742 mmHg 92%
    10:00 +3°C° 0.3 mm 4 m/s 743 mmHg 91%
    11:00 +2°C° 0.3 mm 5 m/s 743 mmHg 90%
    12:00 +2°C° 0.3 mm 5 m/s 743 mmHg 88%
    13:00 +3°C° 0.3 mm 6 m/s 743 mmHg 87%
    14:00 +2°C° 0.4 mm 6 m/s 743 mmHg 87%
    15:00 +2°C° 0.4 mm 6 m/s 743 mmHg 87%
    16:00 +2°C° 0.4 mm 6 m/s 743 mmHg 88%
    17:00 +1°C° 0.2 mm 6 m/s 743 mmHg 87%
    18:00 +1°C° 0.2 mm 6 m/s 744 mmHg 86%
    19:00 -1°C° 0.2 mm 6 m/s 745 mmHg 85%
    20:00 -1°C° 0 mm 6 m/s 746 mmHg 83%
    21:00 -1°C° 0 mm 5 m/s 746 mmHg 81%
    22:00 -1°C° 0 mm 5 m/s 747 mmHg 79%
    23:00 -1°C° 0 mm 4 m/s 748 mmHg 80%

    24 Dezembro, Segunda-feira

    Tempo Temperatura Precipitação Vento Pressão Humidade
    00:00 -2°C° 0 mm 4 m/s 749 mmHg 81%
    01:00 -1°C° 0 mm 3 m/s 749 mmHg 82%
    02:00 -1°C° 0 mm 3 m/s 750 mmHg 83%
    03:00 -1°C° 0 mm 3 m/s 750 mmHg 84%
    04:00 -1°C° 0 mm 2 m/s 751 mmHg 85%
    05:00 -1°C° 0 mm 2 m/s 751 mmHg 86%
    06:00 -1°C° 0 mm 2 m/s 751 mmHg 87%
    07:00 -1°C° 0 mm 2 m/s 751 mmHg 88%
    08:00 +1°C° 0 mm 2 m/s 752 mmHg 89%
    09:00 +1°C° 0 mm 2 m/s 752 mmHg 89%
    10:00 0°C° 0 mm 3 m/s 752 mmHg 89%
    11:00 +1°C° 0 mm 3 m/s 752 mmHg 88%
    12:00 +1°C° 0 mm 3 m/s 752 mmHg 87%
    13:00 +1°C° 0 mm 3 m/s 753 mmHg 86%
    14:00 +1°C° 0 mm 3 m/s 753 mmHg 88%
    15:00 +2°C° 0 mm 2 m/s 753 mmHg 90%
    16:00 +1°C° 0 mm 2 m/s 753 mmHg 92%
    17:00 +1°C° 0 mm 2 m/s 754 mmHg 92%
    18:00 +1°C° 0 mm 2 m/s 754 mmHg 92%
    19:00 +1°C° 0 mm 2 m/s 754 mmHg 92%
    20:00 +1°C° 0 mm 2 m/s 754 mmHg 92%
    21:00 -1°C° 0 mm 2 m/s 755 mmHg 91%
    22:00 +1°C° 0 mm 1 m/s 755 mmHg 91%
    23:00 0°C° 0 mm 1 m/s 755 mmHg 90%
    Mostrar mais